TimeEDT,TemperatureF,Dew PointF,Humidity,Sea Level PressureIn,VisibilityMPH,Wind Direction,Wind SpeedMPH,Gust SpeedMPH,PrecipitationIn,Events,Conditions,WindDirDegrees,DateUTC
12:51 AM,39.0,37.0,93,30.15,10.0,Calm,Calm,-,N/A,,Clear,0,2013-06-05 04:51:00
1:51 AM,37.9,37.0,97,30.15,10.0,Calm,Calm,-,N/A,,Clear,0,2013-06-05 05:51:00
2:51 AM,35.1,34.0,96,30.16,10.0,Calm,Calm,-,N/A,,Clear,0,2013-06-05 06:51:00
3:51 AM,34.0,32.0,92,30.17,10.0,Calm,Calm,-,N/A,,Clear,0,2013-06-05 07:51:00
4:51 AM,32.0,30.0,92,30.19,10.0,Calm,Calm,-,N/A,,Clear,0,2013-06-05 08:51:00
5:29 AM,30.2,30.2,100,30.17,8.0,Calm,Calm,-,N/A,,Scattered Clouds,0,2013-06-05 09:29:00
5:33 AM,32.0,30.2,93,30.18,1.5,Calm,Calm,-,N/A,,Mostly Cloudy,0,2013-06-05 09:33:00
5:36 AM,30.2,30.2,100,30.18,0.2,Calm,Calm,-,N/A,Fog,Light Freezing Fog,0,2013-06-05 09:36:00
5:51 AM,30.9,30.9,100,30.21,0.2,Calm,Calm,-,N/A,Fog,Light Freezing Fog,0,2013-06-05 09:51:00
6:51 AM,37.9,37.9,100,30.21,1.0,Calm,Calm,-,N/A,,Mist,0,2013-06-05 10:51:00
6:55 AM,39.2,39.2,100,30.19,3.0,Calm,Calm,-,N/A,,Mostly Cloudy,0,2013-06-05 10:55:00
7:08 AM,41.0,39.2,93,30.19,10.0,Calm,Calm,-,N/A,,Scattered Clouds,0,2013-06-05 11:08:00
7:51 AM,46.9,43.0,86,30.21,10.0,Calm,Calm,-,N/A,,Clear,0,2013-06-05 11:51:00
8:51 AM,53.1,39.9,61,30.21,10.0,Calm,Calm,-,N/A,,Clear,0,2013-06-05 12:51:00
9:51 AM,57.0,33.1,40,30.21,10.0,Variable,4.6,-,N/A,,Clear,0,2013-06-05 13:51:00
10:51 AM,57.9,35.1,42,30.20,10.0,Calm,Calm,-,N/A,,Clear,0,2013-06-05 14:51:00
11:51 AM,62.1,33.1,34,30.19,10.0,Variable,5.8,-,N/A,,Clear,0,2013-06-05 15:51:00
12:51 PM,63.0,28.9,28,30.19,10.0,Variable,6.9,-,N/A,,Clear,0,2013-06-05 16:51:00
1:51 PM,64.0,28.9,27,30.18,10.0,Variable,3.5,-,N/A,,Clear,0,2013-06-05 17:51:00
2:51 PM,64.0,30.0,28,30.17,10.0,Calm,Calm,-,N/A,,Clear,0,2013-06-05 18:51:00
3:51 PM,64.0,33.1,31,30.14,10.0,Variable,5.8,-,N/A,,Clear,0,2013-06-05 19:51:00
4:51 PM,62.1,33.1,34,30.15,10.0,WNW,5.8,-,N/A,,Mostly Cloudy,300,2013-06-05 20:51:00
5:51 PM,60.1,35.1,39,30.17,10.0,Variable,5.8,-,N/A,,Scattered Clouds,0,2013-06-05 21:51:00
6:51 PM,57.9,37.9,47,30.17,10.0,North,6.9,-,N/A,,Partly Cloudy,350,2013-06-05 22:51:00
7:51 PM,55.9,37.0,49,30.16,10.0,Calm,Calm,-,N/A,,Clear,0,2013-06-05 23:51:00
8:51 PM,52.0,41.0,66,30.17,10.0,Calm,Calm,-,N/A,,Overcast,0,2013-06-06 00:51:00
9:51 PM,51.1,42.1,71,30.17,10.0,Calm,Calm,-,N/A,,Overcast,0,2013-06-06 01:51:00
10:51 PM,48.9,43.0,80,30.17,10.0,Calm,Calm,-,N/A,,Overcast,0,2013-06-06 02:51:00
11:51 PM,48.9,43.0,80,30.15,10.0,Calm,Calm,-,N/A,,Overcast,0,2013-06-06 03:51:00